Temperature
14 14 14 14 14 14 14 14 14 15 14 13 12 12 12 12 12 12 12 12 12 12 12 12 12 12 12 12 12 12 12 12 12 12 12 12 11 11
14 14 14 14 14 14 14 14 13 14 14 13 12 12 12 12 12 12 12 12 12 12 12 12 12 12 12 12 12 12 12 12 11 11 11 11 11 11
14 14 14 14 14 14 14 14 13 13 13 13 12 12 12 12 12 12 11 11 12 12 12 12 12 12 12 12 12 12 11 11 11 11 11 11 11 11
14 14 14 14 14 14 14 13 13 13 13 13 12 12 12 12 12 12 11 11 11 12 12 12 12 12 11 11 11 11 11 11 11 11 11 10 10 10
14 14 14 14 14 14 14 13 13 13 13 13 12 12 12 12 12 12 11 11 11 11 11 11 11 11 11 11 11 11 11 11 11 10 10 10 10 10
14 14 14 14 14 13 13 13 13 13 13 12 12 12 12 12 11 11 11 11 11 11 11 11 11 11 11 11 11 11 11 10 10 10 10 10 10 9
14 14 14 14 14 13 13 13 13 13 12 12 12 12 11 11 11 11 11 11 11 11 10 10 10 10 10 10 10 10 10 10 10 10 10 10 9 9
13 13 14 14 14 14 13 13 13 13 12 12 12 12 11 11 11 11 11 11 10 10 10 10 10 10 10 10 10 10 10 10 10 9 9 9 9 9
13 13 13 13 13 13 13 13 13 13 13 12 12 11 11 11 11 11 11 11 10 10 10 10 10 10 10 10 10 10 10 9 9 9 9 9 9 9
13 13 13 13 13 13 13 13 13 13 12 12 12 12 12 12 11 11 11 11 10 10 10 10 10 9 9 9 10 9 9 9 9 9 9 8 8 8
13 13 13 13 13 13 12 12 12 12 12 12 12 12 12 11 11 11 11 10 10 10 10 10 9 9 9 9 9 9 9 9 9 8 8 8 8 7
13 13 13 13 13 13 12 12 12 12 12 12 12 11 11 11 11 11 10 10 10 9 10 10 9 9 8 9 9 8 8 8 8 8 8 7 7 7
13 13 13 13 13 13 12 12 12 12 11 11 11 11 11 11 11 11 10 10 9 9 9 9 9 8 8 8 8 8 8 8 7 7 7 7 7 6
13 13 13 13 13 12 12 12 12 11 11 11 11 11 10 10 10 10 10 10 10 9 9 9 8 8 8 7 7 7 7 7 7 7 7 7 6 6
13 13 12 12 12 12 12 12 12 11 11 11 10 10 10 10 10 10 10 10 9 9 9 9 8 8 8 7 7 7 6 6 6 6 6 6 6 5
12 12 12 12 12 12 12 11 11 11 11 10 10 10 10 10 10 10 9 9 9 9 9 8 8 8 7 7 7 6 6 6 6 6 6 5 5 5
12 12 12 11 11 11 11 11 11 10 10 10 10 9 9 9 9 9 9 9 8 8 8 8 8 7 7 7 7 6 6 6 5 5 5 5 5 4
12 11 11 11 11 11 10 10 10 10 10 10 9 9 9 9 9 9 8 8 8 8 7 7 7 7 7 7 7 6 6 5 5 5 4 4 4 4
11 11 11 11 10 10 10 10 10 10 10 9 9 9 9 9 8 8 8 8 7 7 7 7 6 6 6 6 6 6 5 5 5 4 4 4 4 4
11 11 11 10 10 10 10 10 9 9 9 9 9 9 9 8 8 8 7 7 7 7 6 6 6 6 5 5 5 5 5 5 4 4 4 3 3 3
11 10 10 10 10 10 9 9 9 9 9 9 9 9 8 8 8 7 7 7 6 6 6 6 6 6 5 5 5 5 5 4 4 4 3 3 3 3
10 10 10 10 9 9 9 9 9 9 9 9 8 8 8 8 7 7 7 6 6 6 6 5 5 5 5 4 4 4 4 4 4 3 3 3 2 2
10 9 9 9 9 9 9 9 9 8 8 8 8 8 7 7 7 6 6 6 6 6 5 5 4 4 4 4 4 4 3 3 3 3 3 3 2 2
Wind_Speed
1 1 1 0 1 1 1 1 2 1 1 2 1 2 2 3 4 4 6 9 9 9 9 9 9 9 10 10 10 10 11 11 11 11 11 11 11 11
1 1 1 1 1 1 1 0 1 1 1 2 2 2 2 2 3 3 5 6 7 7 8 8 8 8 8 8 9 9 9 10 10 10 10 10 10 10
2 2 2 1 1 1 1 1 0 0 2 2 2 2 2 2 2 2 2 3 5 6 6 7 7 7 7 7 7 8 8 8 9 9 9 9 9 9
1 2 2 2 2 1 1 1 1 1 1 2 2 2 2 2 1 1 1 2 3 6 5 6 6 6 6 6 6 6 6 7 7 7 8 8 8 8
1 1 1 2 2 2 2 2 2 2 1 2 2 2 1 1 1 0 1 1 2 3 3 4 5 5 5 5 5 5 5 5 5 6 6 7 7 7
1 1 1 2 2 2 2 2 2 2 2 2 2 2 1 1 1 0 0 0 1 1 2 2 3 3 5 6 5 5 5 5 4 5 5 6 6 6
2 2 2 2 3 1 1 2 2 2 2 2 1 1 1 1 1 1 1 1 1 1 1 1 1 2 2 3 4 4 4 5 5 5 4 5 5 6
3 3 3 4 4 3 2 2 1 1 2 2 1 1 1 1 1 1 2 2 1 1 2 1 1 1 2 4 5 4 4 4 5 4 5 5 5 5
3 3 3 3 5 5 6 5 2 1 2 2 1 1 2 1 2 2 1 2 2 1 2 2 1 1 1 3 5 4 3 4 4 4 4 5 6 5
3 3 4 4 4 5 5 5 4 3 3 3 2 2 1 1 2 2 2 2 2 1 1 2 2 2 1 1 4 3 2 2 3 3 4 4 5 5
4 4 4 4 4 4 5 5 4 4 3 2 1 1 3 3 1 2 2 2 3 1 1 2 3 3 3 1 1 3 1 1 2 3 3 4 5 6
4 3 2 2 4 5 6 5 5 4 4 4 4 4 3 2 3 3 3 3 3 2 0 2 3 3 3 1 1 1 2 2 3 3 3 5 6 6
4 4 3 5 5 5 5 4 3 3 3 3 2 2 2 2 3 3 3 3 4 3 1 2 3 3 3 3 3 2 3 3 3 4 5 5 5 5
4 4 3 7 6 5 4 2 2 3 3 3 3 3 3 3 2 2 3 3 3 4 3 3 3 4 5 5 4 3 3 4 4 5 5 5 6 7
3 2 3 6 6 4 4 4 5 4 4 4 4 4 3 3 2 2 2 3 3 3 4 4 4 4 5 6 5 5 5 4 4 5 5 5 5 5
4 4 5 4 4 2 3 4 4 4 4 4 4 3 2 2 2 2 2 3 3 3 3 4 5 5 5 6 6 6 5 4 4 5 5 6 6 6
5 4 4 4 4 4 4 4 4 4 4 4 4 3 3 3 3 3 3 3 4 4 3 2 4 4 5 6 6 6 6 6 5 6 6 6 6 6
5 4 4 4 5 4 4 4 4 4 4 4 4 4 4 4 3 3 3 4 4 4 4 3 3 3 3 4 5 6 6 6 6 5 6 7 7 6
5 5 4 4 4 4 4 4 4 4 3 4 4 4 4 4 4 4 4 4 4 5 4 3 3 4 6 7 3 5 5 5 5 5 6 7 8 7
5 5 5 4 4 4 4 4 3 3 3 3 4 4 4 4 4 4 4 5 5 5 4 4 4 5 6 7 6 4 6 5 5 6 7 7 7 7
5 5 4 4 4 4 4 3 3 3 3 3 4 4 4 4 4 5 4 5 5 5 5 5 4 6 6 5 5 5 4 7 7 6 7 6 7 7
4 4 4 4 4 3 3 3 3 3 3 4 4 4 4 4 5 5 5 5 5 5 6 5 3 3 4 6 7 7 6 5 6 9 9 8 6 6
3 3 3 3 3 3 3 4 4 3 3 3 4 4 4 3 4 4 4 4 4 5 5 5 4 4 5 6 7 7 8 6 5 5 6 8 13 15
Wind_Direction
236 215 223 200 228 232 219 250 283 251 123 107 98 78 76 61 39 53 57 59 49 45 44 43 45 48 49 47 46 46 45 44 43 40 40 39 38 38
199 210 192 161 139 181 213 231 303 312 82 98 100 91 73 86 64 57 66 72 56 49 45 45 48 51 51 50 48 46 45 43 41 40 38 38 38 38
167 164 166 163 167 159 169 167 151 117 131 115 109 114 118 91 85 68 61 61 69 63 50 48 50 51 51 50 49 47 44 42 41 39 38 37 37 37
149 156 159 152 165 162 170 168 141 142 147 133 136 129 113 97 81 71 75 67 66 74 63 52 48 49 51 50 49 46 42 39 36 34 33 33 33 31
178 174 166 162 166 156 171 153 138 136 147 161 137 122 133 111 124 127 101 59 68 90 93 73 56 52 52 48 46 45 43 38 33 30 28 26 24 21
169 178 184 178 184 174 168 164 161 155 154 162 158 149 152 137 219 241 176 99 38 49 66 70 82 80 61 48 44 45 45 40 35 31 27 22 16 12
186 179 162 105 55 89 160 169 175 182 173 174 177 176 168 168 233 268 288 282 140 12 335 15 51 45 65 62 47 41 42 37 30 25 21 15 10 7
206 197 175 161 149 137 89 52 11 223 191 183 199 212 223 218 247 273 286 285 277 48 310 331 2 12 28 36 55 64 48 33 23 16 12 6 2 3
221 205 189 181 181 181 172 176 176 337 317 268 238 257 259 255 246 254 277 289 299 4 309 298 326 325 18 52 69 63 55 41 31 23 15 13 8 359
224 221 208 199 197 195 182 179 181 184 203 227 247 267 294 284 253 273 282 261 257 225 302 295 307 303 310 74 99 74 43 24 8 360 356 356 350 343
216 223 222 211 155 193 200 196 190 180 151 162 9 29 39 28 325 246 252 258 271 233 212 279 293 297 282 254 135 142 132 0 338 332 333 331 324 311
208 210 207 231 161 187 208 210 211 204 191 180 188 207 219 202 204 239 258 266 281 277 288 269 286 294 281 258 287 251 245 245 256 277 300 313 316 307
210 210 197 170 177 193 226 228 230 230 213 211 217 213 209 212 204 219 244 260 273 274 302 267 282 284 278 283 285 284 292 293 281 277 269 277 285 293
214 211 182 159 171 188 207 197 195 223 225 223 231 237 237 230 221 214 221 234 262 282 288 273 273 280 281 282 283 278 281 287 291 296 299 281 261 256
211 153 150 162 171 182 193 196 201 216 220 226 233 238 239 241 224 214 226 231 252 269 280 277 272 273 272 279 286 289 289 286 281 289 292 290 284 279
199 160 152 162 190 197 189 200 215 222 225 232 240 238 229 224 224 227 232 232 245 253 264 267 268 265 265 273 278 282 284 285 288 285 287 286 284 279
186 195 203 199 201 207 215 218 217 218 219 229 234 232 226 227 231 230 233 237 247 260 262 259 265 259 259 267 271 274 279 280 283 286 286 285 281 278
178 197 206 211 215 217 217 217 217 222 226 226 226 227 229 232 232 226 225 236 251 260 265 265 255 255 258 261 242 267 277 283 287 282 280 283 284 284
185 202 206 210 216 221 222 224 225 225 223 223 226 228 231 235 235 235 235 241 252 259 262 258 255 258 272 281 252 218 268 284 287 282 278 279 285 292
203 208 206 208 212 215 219 221 222 220 219 221 225 230 230 233 237 240 240 247 252 257 261 257 256 258 265 282 291 285 233 268 282 282 285 282 282 286
199 204 207 210 213 213 214 215 216 220 222 219 222 227 232 234 240 245 247 245 251 257 261 264 264 256 268 280 281 284 277 237 254 278 289 289 292 290
195 197 202 208 212 213 211 209 211 218 229 229 230 232 233 236 240 244 248 250 252 258 266 274 279 264 259 264 273 285 289 285 254 251 254 260 288 291
200 200 200 203 210 213 213 212 215 224 226 232 231 232 234 240 247 250 253 254 258 263 268 274 275 264 263 267 275 283 290 295 296 292 279 252 254 267
Height
1558 1558 1558 1558 1558 1558 1559 1559 1561 1560 1560 1559 1558 1557 1556 1554 1553 1552 1550 1549 1547 1546 1544 1542 1541 1539 1538 1536 1535 1534 1533 1532 1531 1530 1528 1527 1526 1524
1556 1557 1557 1558 1558 1557 1558 1558 1559 1560 1559 1559 1558 1557 1555 1555 1553 1552 1551 1549 1548 1546 1545 1543 1542 1540 1539 1537 1536 1535 1534 1533 1532 1530 1529 1528 1526 1525
1557 1557 1557 1557 1557 1557 1557 1557 1558 1558 1558 1558 1558 1556 1555 1555 1553 1552 1551 1550 1548 1547 1545 1544 1542 1541 1540 1538 1537 1536 1535 1534 1532 1531 1530 1528 1527 1525
1556 1556 1556 1556 1556 1556 1557 1557 1557 1557 1558 1558 1557 1556 1556 1555 1553 1552 1552 1550 1549 1547 1546 1545 1543 1541 1540 1539 1538 1536 1535 1534 1533 1531 1530 1528 1527 1525
1556 1556 1556 1556 1556 1556 1556 1556 1556 1557 1557 1557 1557 1556 1555 1554 1553 1553 1552 1551 1550 1548 1546 1545 1543 1542 1540 1539 1538 1537 1535 1534 1533 1531 1529 1528 1526 1525
1555 1555 1555 1556 1555 1555 1555 1556 1556 1556 1556 1556 1556 1555 1555 1554 1553 1553 1552 1551 1550 1548 1547 1545 1543 1542 1540 1539 1538 1536 1535 1534 1532 1531 1529 1527 1526 1524
1554 1554 1554 1554 1554 1555 1555 1555 1555 1555 1555 1555 1555 1555 1554 1553 1553 1552 1552 1551 1549 1548 1547 1545 1544 1542 1541 1539 1537 1536 1534 1533 1531 1530 1528 1527 1525 1523
1553 1553 1553 1553 1553 1553 1553 1553 1554 1554 1554 1554 1554 1554 1554 1553 1552 1551 1551 1551 1550 1548 1546 1545 1544 1542 1540 1538 1537 1535 1534 1532 1531 1529 1527 1526 1524 1522
1552 1552 1552 1551 1551 1552 1552 1552 1552 1552 1553 1553 1553 1553 1553 1552 1551 1550 1550 1549 1549 1547 1546 1545 1543 1542 1540 1537 1536 1534 1533 1531 1529 1528 1526 1524 1522 1520
1550 1550 1550 1550 1550 1551 1551 1551 1551 1551 1551 1551 1551 1551 1551 1550 1549 1549 1549 1548 1547 1545 1544 1544 1542 1541 1539 1537 1534 1533 1531 1529 1528 1526 1524 1522 1520 1518
1548 1548 1548 1549 1548 1549 1549 1550 1549 1549 1549 1549 1549 1549 1548 1548 1547 1547 1547 1546 1546 1545 1543 1542 1541 1539 1537 1536 1533 1531 1529 1528 1526 1524 1522 1520 1518 1516
1545 1545 1545 1546 1546 1547 1547 1548 1548 1548 1548 1547 1547 1547 1546 1546 1545 1545 1544 1544 1544 1543 1541 1540 1539 1537 1536 1534 1532 1530 1528 1526 1524 1522 1520 1518 1516 1513
1542 1543 1543 1543 1543 1544 1544 1545 1545 1546 1546 1545 1545 1544 1544 1543 1543 1542 1542 1541 1541 1540 1539 1537 1536 1535 1534 1532 1530 1528 1526 1523 1521 1519 1517 1515 1513 1511
1540 1540 1540 1540 1540 1541 1541 1541 1542 1543 1543 1542 1542 1542 1541 1541 1540 1539 1539 1538 1537 1537 1536 1534 1533 1532 1531 1529 1528 1525 1523 1521 1519 1516 1514 1512 1510 1508
1536 1536 1537 1537 1537 1538 1538 1538 1539 1539 1539 1539 1539 1539 1538 1538 1537 1536 1535 1535 1534 1533 1532 1531 1530 1528 1527 1526 1524 1522 1520 1518 1515 1513 1511 1509 1507 1504
1532 1532 1533 1533 1534 1534 1534 1535 1535 1535 1535 1535 1535 1535 1534 1534 1533 1533 1532 1531 1530 1529 1528 1527 1526 1525 1523 1521 1520 1518 1516 1514 1512 1510 1507 1505 1503 1501
1528 1529 1529 1530 1530 1530 1530 1531 1531 1531 1531 1531 1531 1531 1531 1530 1530 1529 1528 1528 1527 1525 1524 1523 1522 1520 1519 1518 1515 1514 1512 1510 1508 1506 1504 1501 1500 1497
1524 1525 1525 1526 1526 1526 1526 1527 1527 1527 1527 1527 1527 1527 1527 1527 1526 1525 1524 1523 1523 1521 1520 1519 1518 1516 1515 1513 1512 1509 1508 1506 1504 1502 1500 1498 1495 1494
1520 1520 1521 1522 1522 1522 1522 1523 1523 1523 1523 1523 1523 1523 1522 1522 1522 1521 1520 1519 1518 1517 1516 1515 1514 1512 1511 1509 1507 1505 1503 1501 1499 1497 1495 1493 1491 1489
1515 1516 1516 1517 1518 1518 1518 1519 1519 1519 1519 1519 1518 1518 1518 1517 1517 1516 1516 1515 1514 1513 1512 1511 1510 1508 1507 1506 1503 1501 1499 1497 1495 1493 1491 1488 1486 1484
1511 1512 1513 1513 1514 1515 1515 1515 1515 1515 1515 1514 1514 1514 1513 1513 1512 1512 1511 1510 1510 1509 1507 1506 1505 1504 1502 1501 1498 1496 1495 1493 1490 1489 1486 1484 1481 1479
1507 1508 1509 1510 1510 1511 1511 1511 1511 1511 1510 1510 1509 1509 1508 1508 1508 1507 1507 1506 1505 1504 1503 1502 1500 1499 1497 1495 1493 1491 1489 1488 1486 1484 1482 1480 1478 1474
1504 1505 1505 1506 1506 1506 1507 1506 1506 1506 1506 1505 1505 1504 1504 1503 1503 1502 1502 1501 1500 1499 1498 1497 1496 1494 1492 1491 1489 1486 1485 1482 1480 1478 1477 1475 1473 1470